Regional Weather Roundup
Issued by NWS

Home | Current Version | Previous Version | Graphics & Text | Print | Product List | Glossary On
Versions: 1 2 3 4 5 6 7 8 9 10 11 12 13 14 15 16 17 18 19 20 21 22 23 24 25 26 27 28 29 30 31 32 33 34 35 36 37 38 39 40 41 42 43 44 45 46 47 48 49 50
529
ASUS44 KJAN 281603
RWRMS

MISSISSIPPI HOURLY WEATHER ROUNDUP
NATIONAL WEATHER SERVICE JACKSON MS
1100 AM CDT SAT MAR 28 2015

NOTE: "FAIR: INDICATES FEW OR NO CLOUDS BELOW 12,000 FEET WITH NO
SIGNIFICANT WEATHER AND/OR OBSTRUCTIONS TO VISIBILITY.

MSZ001>002-007>008-010>013-018>021-025>028-034>036-281700-
NORTHWEST MISSISSIPPI

CITY           SKY/WX    TMP DP  RH WIND       PRES   REMARKS
CLARKSDALE     CLOUDY    41  25  52 E10       30.32S
CLEVELAND      FAIR      44  29  56 E9        30.30R
GREENWOOD      MOSUNNY   48  25  40 E9        30.30S
GREENVILLE     CLOUDY    46  33  60 E9        30.28R
OXFORD         PTSUNNY   36  23  60 CALM      30.33S
TUNICA         CLOUDY    39  27  60 E6        30.33S WCI  35
$$

MSZ003>006-009-014>017-022>024-029>033-037>039-281700-
NORTHEAST MISSISSIPPI

CITY           SKY/WX    TMP DP  RH WIND       PRES   REMARKS
COLUMBUS AFB   CLOUDY    42  24  49 NW5       30.32R
CORINTH        FAIR      43  19  39 E5        30.30R
GOLDN TRIANGLE CLOUDY    43  28  56 NW5       30.32R
STARKVILLE     CLOUDY    41  30  65 N3        30.32R
TUPELO         PTSUNNY   42  20  41 NE5       30.31S
$$

MSZ040-058-281700-
CENTRAL MISSISSIPPI

CITY           SKY/WX    TMP DP  RH WIND       PRES   REMARKS
JACKSON INTL   PTSUNNY   52  31  44 N7        30.27R
JACKSON HAWKNS PTSUNNY   51  31  46 SE3       30.27S
MERIDIAN KEY   MOSUNNY   50  27  40 N3        30.29R
MERIDIAN NAS   NOT AVBL
RAYMOND        FAIR      52  48  87 SE3       30.27R
VICKSBURG      PTSUNNY   51  37  58 E8        30.27R
$$

MSZ059>079-281700-
SOUTH MISSISSIPPI

CITY           SKY/WX    TMP DP  RH WIND       PRES   REMARKS
BROOKHAVEN     FAIR      55  39  54 E3        30.26F
HATTIESBURG    SUNNY     53  36  52 CALM      30.28S
MCCOMB         SUNNY     54  36  50 VRB5      30.25S
NATCHEZ        MOSUNNY   55  36  47 SE8       30.24F
PINE BELT      SUNNY     52  30  43 NE5       30.28S
$$

MSZ080>082-281700-
COASTAL MISSISSIPPI

CITY           SKY/WX    TMP DP  RH WIND       PRES   REMARKS
BAY ST LOUIS   SUNNY     55  28  35 CALM      30.27R
BILOXI         SUNNY     57  35  43 NE7       30.26R
PASCAGOULA     SUNNY     58  35  42 NE6       30.27R
GULFPORT       SUNNY     57  35  43 E8        30.26R
$$



USA.gov is the U.S. government's official web portal to all federal, state and local government web resources and services.